owner,sensor,date,latitude,longitude,vertical_datum,mass_concentration_of_oxygen_in_sea_water,qcFlag 
SCCF RECON,ioos:station:SCCF:16:1,2010-10-01T00:00:00Z,26.4345,-81.9647,2.634,5.99,1111122 
SCCF RECON,ioos:station:SCCF:16:1,2010-10-01T01:00:00Z,26.4345,-81.9647,2.634,6.21,1111122 
SCCF RECON,ioos:station:SCCF:16:1,2010-10-01T02:00:00Z,26.4345,-81.9647,2.615,6.37,1111122 
SCCF RECON,ioos:station:SCCF:16:1,2010-10-01T03:00:00Z,26.4345,-81.9647,2.562,6.33,1111122 
SCCF RECON,ioos:station:SCCF:16:1,2010-10-01T04:00:00Z,26.4345,-81.9647,2.578,6.1,1111122 
SCCF RECON,ioos:station:SCCF:16:1,2010-10-01T05:00:00Z,26.4345,-81.9647,2.583,5.93,1111122 
SCCF RECON,ioos:station:SCCF:16:1,2010-10-01T06:00:00Z,26.4345,-81.9647,2.598,5.96,1111122 
SCCF RECON,ioos:station:SCCF:16:1,2010-10-01T07:00:00Z,26.4345,-81.9647,2.674,5.89,1111122 
SCCF RECON,ioos:station:SCCF:16:1,2010-10-01T08:00:00Z,26.4345,-81.9647,2.739,5.83,1111122 
SCCF RECON,ioos:station:SCCF:16:1,2010-10-01T09:00:00Z,26.4345,-81.9647,2.769,5.6,1111122 
SCCF RECON,ioos:station:SCCF:16:1,2010-10-01T10:00:00Z,26.4345,-81.9647,2.797,5.26,1111122 
SCCF RECON,ioos:station:SCCF:16:1,2010-10-01T11:00:00Z,26.4345,-81.9647,2.785,5.22,1111122 
SCCF RECON,ioos:station:SCCF:16:1,2010-10-01T12:00:00Z,26.4345,-81.9647,2.7,5.16,1111122 
SCCF RECON,ioos:station:SCCF:16:1,2010-10-01T13:00:00Z,26.4345,-81.9647,2.58,5.12,1111122 
SCCF RECON,ioos:station:SCCF:16:1,2010-10-01T14:00:00Z,26.4345,-81.9647,2.457,4.73,1111122 
SCCF RECON,ioos:station:SCCF:16:1,2010-10-01T15:00:00Z,26.4345,-81.9647,2.329,5.42,1111122 
SCCF RECON,ioos:station:SCCF:16:1,2010-10-01T16:00:00Z,26.4345,-81.9647,2.195,5.13,1111122 
SCCF RECON,ioos:station:SCCF:16:1,2010-10-01T17:00:00Z,26.4345,-81.9647,2.118,5.02,1111122 
SCCF RECON,ioos:station:SCCF:16:1,2010-10-01T18:00:00Z,26.4345,-81.9647,2.096,5.15,1111122 
SCCF RECON,ioos:station:SCCF:16:1,2010-10-01T19:00:00Z,26.4345,-81.9647,2.174,5.11,1111122 
SCCF RECON,ioos:station:SCCF:16:1,2010-10-01T20:00:00Z,26.4345,-81.9647,2.285,4.73,1111122 
SCCF RECON,ioos:station:SCCF:16:1,2010-10-01T21:00:00Z,26.4345,-81.9647,2.398,5.25,1111122 
SCCF RECON,ioos:station:SCCF:16:1,2010-10-01T22:00:00Z,26.4345,-81.9647,2.498,6.06,1111122 
SCCF RECON,ioos:station:SCCF:16:1,2010-10-01T23:00:00Z,26.4345,-81.9647,2.583,6.3,1111122 
SCCF RECON,ioos:station:SCCF:16:1,2010-10-02T00:00:00Z,26.4345,-81.9647,2.623,6.23,1111122 
SCCF RECON,ioos:station:SCCF:16:1,2010-10-02T01:00:00Z,26.4345,-81.9647,2.651,6.04,1111122 
SCCF RECON,ioos:station:SCCF:16:1,2010-10-02T02:00:00Z,26.4345,-81.9647,2.664,5.85,1111122 
SCCF RECON,ioos:station:SCCF:16:1,2010-10-02T03:00:00Z,26.4345,-81.9647,2.627,5.76,1111122 
SCCF RECON,ioos:station:SCCF:16:1,2010-10-02T04:00:00Z,26.4345,-81.9647,2.576,5.53,1111122 
SCCF RECON,ioos:station:SCCF:16:1,2010-10-02T05:00:00Z,26.4345,-81.9647,2.541,5.87,1111122 
SCCF RECON,ioos:station:SCCF:16:1,2010-10-02T06:00:00Z,26.4345,-81.9647,2.53,5.96,1111122 
SCCF RECON,ioos:station:SCCF:16:1,2010-10-02T07:00:00Z,26.4345,-81.9647,2.555,5.89,1111122 
SCCF RECON,ioos:station:SCCF:16:1,2010-10-02T08:00:00Z,26.4345,-81.9647,2.618,5.8,1111122 
SCCF RECON,ioos:station:SCCF:16:1,2010-10-02T09:00:00Z,26.4345,-81.9647,2.709,5.87,1111122 
SCCF RECON,ioos:station:SCCF:16:1,2010-10-02T10:00:00Z,26.4345,-81.9647,2.773,5.78,1111122 
SCCF RECON,ioos:station:SCCF:16:1,2010-10-02T11:00:00Z,26.4345,-81.9647,2.818,5.54,1111122 
SCCF RECON,ioos:station:SCCF:16:1,2010-10-02T12:00:00Z,26.4345,-81.9647,2.837,5.15,1111122 
SCCF RECON,ioos:station:SCCF:16:1,2010-10-02T13:00:00Z,26.4345,-81.9647,2.822,5.06,1111122 
SCCF RECON,ioos:station:SCCF:16:1,2010-10-02T14:00:00Z,26.4345,-81.9647,2.711,5.05,1111122 
SCCF RECON,ioos:station:SCCF:16:1,2010-10-02T15:00:00Z,26.4345,-81.9647,2.567,5.4,1111122 
SCCF RECON,ioos:station:SCCF:16:1,2010-10-02T16:00:00Z,26.4345,-81.9647,2.405,5.63,1111122 
SCCF RECON,ioos:station:SCCF:16:1,2010-10-02T17:00:00Z,26.4345,-81.9647,2.252,4.95,1111122 
SCCF RECON,ioos:station:SCCF:16:1,2010-10-02T18:00:00Z,26.4345,-81.9647,2.145,5.19,1111122 
SCCF RECON,ioos:station:SCCF:16:1,2010-10-02T19:00:00Z,26.4345,-81.9647,2.123,5.48,1111122 
SCCF RECON,ioos:station:SCCF:16:1,2010-10-02T20:00:00Z,26.4345,-81.9647,2.217,5.51,1111122 
SCCF RECON,ioos:station:SCCF:16:1,2010-10-02T21:00:00Z,26.4345,-81.9647,2.339,5.48,1111122 
SCCF RECON,ioos:station:SCCF:16:1,2010-10-02T22:00:00Z,26.4345,-81.9647,2.468,5.45,1111122 
SCCF RECON,ioos:station:SCCF:16:1,2010-10-02T23:00:00Z,26.4345,-81.9647,2.542,5.71,1111122 
SCCF RECON,ioos:station:SCCF:16:1,2010-10-03T00:00:00Z,26.4345,-81.9647,2.614,6.34,1111122 
SCCF RECON,ioos:station:SCCF:16:1,2010-10-03T01:00:00Z,26.4345,-81.9647,2.696,6.19,1111122 
SCCF RECON,ioos:station:SCCF:16:1,2010-10-03T02:00:00Z,26.4345,-81.9647,2.73,6.05,1111122 
SCCF RECON,ioos:station:SCCF:16:1,2010-10-03T03:00:00Z,26.4345,-81.9647,2.704,5.88,1111122 
SCCF RECON,ioos:station:SCCF:16:1,2010-10-03T04:00:00Z,26.4345,-81.9647,2.635,5.78,1111122 
SCCF RECON,ioos:station:SCCF:16:1,2010-10-03T05:00:00Z,26.4345,-81.9647,2.543,5.64,1111122 
SCCF RECON,ioos:station:SCCF:16:1,2010-10-03T06:00:00Z,26.4345,-81.9647,2.451,5.73,1111122 
SCCF RECON,ioos:station:SCCF:16:1,2010-10-03T07:00:00Z,26.4345,-81.9647,2.415,5.74,1111122 
SCCF RECON,ioos:station:SCCF:16:1,2010-10-03T08:00:00Z,26.4345,-81.9647,2.462,5.43,1111122 
SCCF RECON,ioos:station:SCCF:16:1,2010-10-03T09:00:00Z,26.4345,-81.9647,2.541,5.35,1111122 
SCCF RECON,ioos:station:SCCF:16:1,2010-10-03T10:00:00Z,26.4345,-81.9647,2.66,5.67,1111122 
SCCF RECON,ioos:station:SCCF:16:1,2010-10-03T11:00:00Z,26.4345,-81.9647,2.747,5.67,1111122 
SCCF RECON,ioos:station:SCCF:16:1,2010-10-03T12:00:00Z,26.4345,-81.9647,2.819,5.56,1111122 
SCCF RECON,ioos:station:SCCF:16:1,2010-10-03T13:00:00Z,26.4345,-81.9647,2.865,5.42,1111122 
SCCF RECON,ioos:station:SCCF:16:1,2010-10-03T14:00:00Z,26.4345,-81.9647,2.864,5.35,1111122 
SCCF RECON,ioos:station:SCCF:16:1,2010-10-03T15:00:00Z,26.4345,-81.9647,2.769,5.27,1111122 
SCCF RECON,ioos:station:SCCF:16:1,2010-10-03T16:00:00Z,26.4345,-81.9647,2.607,5.48,1111122 
SCCF RECON,ioos:station:SCCF:16:1,2010-10-03T17:00:00Z,26.4345,-81.9647,2.417,4.88,1111122 
SCCF RECON,ioos:station:SCCF:16:1,2010-10-03T18:00:00Z,26.4345,-81.9647,2.252,5.27,1111122 
SCCF RECON,ioos:station:SCCF:16:1,2010-10-03T19:00:00Z,26.4345,-81.9647,2.122,5.15,1111122 
SCCF RECON,ioos:station:SCCF:16:1,2010-10-03T20:00:00Z,26.4345,-81.9647,2.078,5.85,1111122 
SCCF RECON,ioos:station:SCCF:16:1,2010-10-03T21:00:00Z,26.4345,-81.9647,2.153,6.0,1111122 
SCCF RECON,ioos:station:SCCF:16:1,2010-10-03T22:00:00Z,26.4345,-81.9647,2.308,6.26,1111122 
SCCF RECON,ioos:station:SCCF:16:1,2010-10-03T23:00:00Z,26.4345,-81.9647,2.462,6.25,1111122 
SCCF RECON,ioos:station:SCCF:16:1,2010-10-04T00:00:00Z,26.4345,-81.9647,2.569,6.42,1111122 
SCCF RECON,ioos:station:SCCF:16:1,2010-10-04T01:00:00Z,26.4345,-81.9647,2.666,5.7,1111122 
SCCF RECON,ioos:station:SCCF:16:1,2010-10-04T02:00:00Z,26.4345,-81.9647,2.757,5.4,1111122 
SCCF RECON,ioos:station:SCCF:16:1,2010-10-04T03:00:00Z,26.4345,-81.9647,2.764,5.35,1111122 
SCCF RECON,ioos:station:SCCF:16:1,2010-10-04T04:00:00Z,26.4345,-81.9647,2.708,5.36,1111122 
SCCF RECON,ioos:station:SCCF:16:1,2010-10-04T05:00:00Z,26.4345,-81.9647,2.551,5.48,1111122 
SCCF RECON,ioos:station:SCCF:16:1,2010-10-04T06:00:00Z,26.4345,-81.9647,2.411,5.29,1111122 
SCCF RECON,ioos:station:SCCF:16:1,2010-10-04T07:00:00Z,26.4345,-81.9647,2.308,5.18,1111122 
SCCF RECON,ioos:station:SCCF:16:1,2010-10-04T08:00:00Z,26.4345,-81.9647,2.237,5.41,1111122 
SCCF RECON,ioos:station:SCCF:16:1,2010-10-04T09:00:00Z,26.4345,-81.9647,2.252,5.5,1111122 
SCCF RECON,ioos:station:SCCF:16:1,2010-10-04T10:00:00Z,26.4345,-81.9647,2.412,5.41,1111122 
SCCF RECON,ioos:station:SCCF:16:1,2010-10-04T11:00:00Z,26.4345,-81.9647,2.579,5.48,1111122 
SCCF RECON,ioos:station:SCCF:16:1,2010-10-04T12:00:00Z,26.4345,-81.9647,2.7,5.44,1111122 
SCCF RECON,ioos:station:SCCF:16:1,2010-10-04T13:00:00Z,26.4345,-81.9647,2.8,5.34,1111122 
SCCF RECON,ioos:station:SCCF:16:1,2010-10-04T14:00:00Z,26.4345,-81.9647,2.861,5.29,1111122 
SCCF RECON,ioos:station:SCCF:16:1,2010-10-04T15:00:00Z,26.4345,-81.9647,2.887,5.4,1111122 
SCCF RECON,ioos:station:SCCF:16:1,2010-10-04T16:00:00Z,26.4345,-81.9647,2.793,5.51,1111122 
SCCF RECON,ioos:station:SCCF:16:1,2010-10-04T17:00:00Z,26.4345,-81.9647,2.602,5.62,1111122 
SCCF RECON,ioos:station:SCCF:16:1,2010-10-04T18:00:00Z,26.4345,-81.9647,2.393,5.42,1111122 
SCCF RECON,ioos:station:SCCF:16:1,2010-10-04T19:00:00Z,26.4345,-81.9647,2.204,5.5,1111122 
SCCF RECON,ioos:station:SCCF:16:1,2010-10-04T20:00:00Z,26.4345,-81.9647,2.082,6.06,1111122 
SCCF RECON,ioos:station:SCCF:16:1,2010-10-04T21:00:00Z,26.4345,-81.9647,2.06,6.32,1111122 
SCCF RECON,ioos:station:SCCF:16:1,2010-10-04T22:00:00Z,26.4345,-81.9647,2.159,6.39,1111122 
SCCF RECON,ioos:station:SCCF:16:1,2010-10-04T23:00:00Z,26.4345,-81.9647,2.374,6.3,1111122 
SCCF RECON,ioos:station:SCCF:16:1,2010-10-05T00:00:00Z,26.4345,-81.9647,2.516,6.84,1111122 
SCCF RECON,ioos:station:SCCF:16:1,2010-10-05T01:00:00Z,26.4345,-81.9647,2.617,6.74,1111122 
SCCF RECON,ioos:station:SCCF:16:1,2010-10-05T02:00:00Z,26.4345,-81.9647,2.721,6.14,1111122 
SCCF RECON,ioos:station:SCCF:16:1,2010-10-05T03:00:00Z,26.4345,-81.9647,2.792,5.85,1111122 
SCCF RECON,ioos:station:SCCF:16:1,2010-10-05T04:00:00Z,26.4345,-81.9647,2.766,5.82,1111122 
SCCF RECON,ioos:station:SCCF:16:1,2010-10-05T05:00:00Z,26.4345,-81.9647,2.664,5.62,1111122 
SCCF RECON,ioos:station:SCCF:16:1,2010-10-05T06:00:00Z,26.4345,-81.9647,2.486,5.5,1111122 
SCCF RECON,ioos:station:SCCF:16:1,2010-10-05T07:00:00Z,26.4345,-81.9647,2.317,5.55,1111122 
SCCF RECON,ioos:station:SCCF:16:1,2010-10-05T08:00:00Z,26.4345,-81.9647,2.192,5.62,1111122 
SCCF RECON,ioos:station:SCCF:16:1,2010-10-05T09:00:00Z,26.4345,-81.9647,2.117,5.74,1111122 
SCCF RECON,ioos:station:SCCF:16:1,2010-10-05T10:00:00Z,26.4345,-81.9647,2.219,5.72,1111122 
SCCF RECON,ioos:station:SCCF:16:1,2010-10-05T11:00:00Z,26.4345,-81.9647,2.412,5.72,1111122 
SCCF RECON,ioos:station:SCCF:16:1,2010-10-05T12:00:00Z,26.4345,-81.9647,2.588,5.76,1111122 
SCCF RECON,ioos:station:SCCF:16:1,2010-10-05T13:00:00Z,26.4345,-81.9647,2.744,5.92,1111122 
SCCF RECON,ioos:station:SCCF:16:1,2010-10-05T14:00:00Z,26.4345,-81.9647,2.878,5.75,1111122 
SCCF RECON,ioos:station:SCCF:16:1,2010-10-05T15:00:00Z,26.4345,-81.9647,2.91,5.85,1111122 
SCCF RECON,ioos:station:SCCF:16:1,2010-10-05T16:00:00Z,26.4345,-81.9647,2.862,6.12,1111122 
SCCF RECON,ioos:station:SCCF:16:1,2010-10-05T17:00:00Z,26.4345,-81.9647,2.735,6.07,1111122 
SCCF RECON,ioos:station:SCCF:16:1,2010-10-05T18:00:00Z,26.4345,-81.9647,2.536,6.22,1111122 
SCCF RECON,ioos:station:SCCF:16:1,2010-10-05T19:00:00Z,26.4345,-81.9647,2.377,6.12,1111122 
SCCF RECON,ioos:station:SCCF:16:1,2010-10-05T20:00:00Z,26.4345,-81.9647,2.253,6.39,1111122 
SCCF RECON,ioos:station:SCCF:16:1,2010-10-05T21:00:00Z,26.4345,-81.9647,2.155,6.59,1111122 
SCCF RECON,ioos:station:SCCF:16:1,2010-10-05T22:00:00Z,26.4345,-81.9647,2.179,6.77,1111122 
SCCF RECON,ioos:station:SCCF:16:1,2010-10-05T23:00:00Z,26.4345,-81.9647,2.324,6.81,1111122 
SCCF RECON,ioos:station:SCCF:16:1,2010-10-06T00:00:00Z,26.4345,-81.9647,2.512,6.88,1111122 
SCCF RECON,ioos:station:SCCF:16:1,2010-10-06T01:00:00Z,26.4345,-81.9647,2.682,6.92,1111122 
SCCF RECON,ioos:station:SCCF:16:1,2010-10-06T02:00:00Z,26.4345,-81.9647,2.775,6.82,1111122 
SCCF RECON,ioos:station:SCCF:16:1,2010-10-06T03:00:00Z,26.4345,-81.9647,2.815,6.68,1111122 
SCCF RECON,ioos:station:SCCF:16:1,2010-10-06T04:00:00Z,26.4345,-81.9647,2.833,6.58,1111122 
SCCF RECON,ioos:station:SCCF:16:1,2010-10-06T05:00:00Z,26.4345,-81.9647,2.712,6.44,1111122 
SCCF RECON,ioos:station:SCCF:16:1,2010-10-06T06:00:00Z,26.4345,-81.9647,2.493,6.28,1111122 
SCCF RECON,ioos:station:SCCF:16:1,2010-10-06T07:00:00Z,26.4345,-81.9647,2.26,6.11,1111122 
SCCF RECON,ioos:station:SCCF:16:1,2010-10-06T08:00:00Z,26.4345,-81.9647,2.07,6.2,1111122 
SCCF RECON,ioos:station:SCCF:16:1,2010-10-06T09:00:00Z,26.4345,-81.9647,1.937,6.07,1111122 
SCCF RECON,ioos:station:SCCF:16:1,2010-10-06T10:00:00Z,26.4345,-81.9647,1.926,6.06,1111122 
SCCF RECON,ioos:station:SCCF:16:1,2010-10-06T11:00:00Z,26.4345,-81.9647,2.049,5.95,1111122 
SCCF RECON,ioos:station:SCCF:16:1,2010-10-06T12:00:00Z,26.4345,-81.9647,2.258,5.95,1111122 
SCCF RECON,ioos:station:SCCF:16:1,2010-10-06T13:00:00Z,26.4345,-81.9647,2.467,6.05,1111122 
SCCF RECON,ioos:station:SCCF:16:1,2010-10-06T14:00:00Z,26.4345,-81.9647,2.681,6.21,1111122 
SCCF RECON,ioos:station:SCCF:16:1,2010-10-06T15:00:00Z,26.4345,-81.9647,2.782,6.38,1111122 
SCCF RECON,ioos:station:SCCF:16:1,2010-10-06T16:00:00Z,26.4345,-81.9647,2.847,6.42,1111122 
SCCF RECON,ioos:station:SCCF:16:1,2010-10-06T17:00:00Z,26.4345,-81.9647,2.81,6.56,1111122 
SCCF RECON,ioos:station:SCCF:16:1,2010-10-06T18:00:00Z,26.4345,-81.9647,2.687,6.66,1111122 
SCCF RECON,ioos:station:SCCF:16:1,2010-10-06T19:00:00Z,26.4345,-81.9647,2.514,6.77,1111122 
SCCF RECON,ioos:station:SCCF:16:1,2010-10-06T20:00:00Z,26.4345,-81.9647,2.36,6.98,1111122 
SCCF RECON,ioos:station:SCCF:16:1,2010-10-06T21:00:00Z,26.4345,-81.9647,2.256,6.84,1111122 
SCCF RECON,ioos:station:SCCF:16:1,2010-10-06T22:00:00Z,26.4345,-81.9647,2.198,6.86,1111122 
SCCF RECON,ioos:station:SCCF:16:1,2010-10-06T23:00:00Z,26.4345,-81.9647,2.282,6.75,1111122 
SCCF RECON,ioos:station:SCCF:16:1,2010-10-07T00:00:00Z,26.4345,-81.9647,2.458,6.92,1111122 
SCCF RECON,ioos:station:SCCF:16:1,2010-10-07T01:00:00Z,26.4345,-81.9647,2.663,7.03,1111122 
SCCF RECON,ioos:station:SCCF:16:1,2010-10-07T02:00:00Z,26.4345,-81.9647,2.805,6.92,1111122 
SCCF RECON,ioos:station:SCCF:16:1,2010-10-07T03:00:00Z,26.4345,-81.9647,2.884,6.8,1111122 
SCCF RECON,ioos:station:SCCF:16:1,2010-10-07T04:00:00Z,26.4345,-81.9647,2.919,6.74,1111122 
SCCF RECON,ioos:station:SCCF:16:1,2010-10-07T05:00:00Z,26.4345,-81.9647,2.866,6.65,1111122 
SCCF RECON,ioos:station:SCCF:16:1,2010-10-07T06:00:00Z,26.4345,-81.9647,2.703,6.52,1111122 
SCCF RECON,ioos:station:SCCF:16:1,2010-10-07T07:00:00Z,26.4345,-81.9647,2.482,6.41,1111122 
SCCF RECON,ioos:station:SCCF:16:1,2010-10-07T08:00:00Z,26.4345,-81.9647,2.255,6.22,1111122 
SCCF RECON,ioos:station:SCCF:16:1,2010-10-07T09:00:00Z,26.4345,-81.9647,2.063,6.27,1111122 
SCCF RECON,ioos:station:SCCF:16:1,2010-10-07T10:00:00Z,26.4345,-81.9647,1.916,6.21,1111122 
SCCF RECON,ioos:station:SCCF:16:1,2010-10-07T11:00:00Z,26.4345,-81.9647,1.931,6.25,1111122 
SCCF RECON,ioos:station:SCCF:16:1,2010-10-07T12:00:00Z,26.4345,-81.9647,2.123,6.14,1111122 
SCCF RECON,ioos:station:SCCF:16:1,2010-10-07T13:00:00Z,26.4345,-81.9647,2.41,6.23,1111122 
SCCF RECON,ioos:station:SCCF:16:1,2010-10-07T14:00:00Z,26.4345,-81.9647,2.661,6.38,1111122 
SCCF RECON,ioos:station:SCCF:16:1,2010-10-07T15:00:00Z,26.4345,-81.9647,2.823,6.48,1111122 
SCCF RECON,ioos:station:SCCF:16:1,2010-10-07T16:00:00Z,26.4345,-81.9647,2.947,6.52,1111122 
SCCF RECON,ioos:station:SCCF:16:1,2010-10-07T17:00:00Z,26.4345,-81.9647,2.997,6.6,1111122 
SCCF RECON,ioos:station:SCCF:16:1,2010-10-07T18:00:00Z,26.4345,-81.9647,2.935,6.7,1111122 
SCCF RECON,ioos:station:SCCF:16:1,2010-10-07T19:00:00Z,26.4345,-81.9647,2.786,6.77,1111122 
SCCF RECON,ioos:station:SCCF:16:1,2010-10-07T20:00:00Z,26.4345,-81.9647,2.652,6.75,1111122 
SCCF RECON,ioos:station:SCCF:16:1,2010-10-07T21:00:00Z,26.4345,-81.9647,2.525,6.57,1111122 
SCCF RECON,ioos:station:SCCF:16:1,2010-10-07T22:00:00Z,26.4345,-81.9647,2.448,6.85,1111122 
SCCF RECON,ioos:station:SCCF:16:1,2010-10-07T23:00:00Z,26.4345,-81.9647,2.415,6.83,1111122 
SCCF RECON,ioos:station:SCCF:16:1,2010-10-08T00:00:00Z,26.4345,-81.9647,2.515,6.83,1111122 
SCCF RECON,ioos:station:SCCF:16:1,2010-10-08T01:00:00Z,26.4345,-81.9647,2.719,6.82,1111122 
SCCF RECON,ioos:station:SCCF:16:1,2010-10-08T02:00:00Z,26.4345,-81.9647,2.917,7.08,1111122 
SCCF RECON,ioos:station:SCCF:16:1,2010-10-08T03:00:00Z,26.4345,-81.9647,3.054,7.02,1111122 
SCCF RECON,ioos:station:SCCF:16:1,2010-10-08T04:00:00Z,26.4345,-81.9647,3.122,6.66,1111122 
SCCF RECON,ioos:station:SCCF:16:1,2010-10-08T05:00:00Z,26.4345,-81.9647,3.134,6.43,1111122 
SCCF RECON,ioos:station:SCCF:16:1,2010-10-08T06:00:00Z,26.4345,-81.9647,3.027,6.44,1111122 
SCCF RECON,ioos:station:SCCF:16:1,2010-10-08T07:00:00Z,26.4345,-81.9647,2.792,6.18,1111122 
SCCF RECON,ioos:station:SCCF:16:1,2010-10-08T08:00:00Z,26.4345,-81.9647,2.568,6.19,1111122 
SCCF RECON,ioos:station:SCCF:16:1,2010-10-08T09:00:00Z,26.4345,-81.9647,2.352,6.47,1111122 
SCCF RECON,ioos:station:SCCF:16:1,2010-10-08T10:00:00Z,26.4345,-81.9647,2.153,6.4,1111122 
SCCF RECON,ioos:station:SCCF:16:1,2010-10-08T11:00:00Z,26.4345,-81.9647,2.033,6.34,1111122 
SCCF RECON,ioos:station:SCCF:16:1,2010-10-08T12:00:00Z,26.4345,-81.9647,2.079,6.23,1111122 
SCCF RECON,ioos:station:SCCF:16:1,2010-10-08T13:00:00Z,26.4345,-81.9647,2.31,6.15,1111122 
SCCF RECON,ioos:station:SCCF:16:1,2010-10-08T14:00:00Z,26.4345,-81.9647,2.614,6.26,1111122 
SCCF RECON,ioos:station:SCCF:16:1,2010-10-08T15:00:00Z,26.4345,-81.9647,2.829,6.47,1111122 
SCCF RECON,ioos:station:SCCF:16:1,2010-10-08T16:00:00Z,26.4345,-81.9647,2.93,6.52,1111122 
SCCF RECON,ioos:station:SCCF:16:1,2010-10-08T17:00:00Z,26.4345,-81.9647,3.038,6.46,1111122 
SCCF RECON,ioos:station:SCCF:16:1,2010-10-08T18:00:00Z,26.4345,-81.9647,3.056,6.54,1111122 
SCCF RECON,ioos:station:SCCF:16:1,2010-10-08T19:00:00Z,26.4345,-81.9647,2.974,6.59,1111122 
SCCF RECON,ioos:station:SCCF:16:1,2010-10-08T20:00:00Z,26.4345,-81.9647,2.818,6.56,1111122 
SCCF RECON,ioos:station:SCCF:16:1,2010-10-08T21:00:00Z,26.4345,-81.9647,2.708,6.74,1111122 
SCCF RECON,ioos:station:SCCF:16:1,2010-10-08T22:00:00Z,26.4345,-81.9647,2.635,6.83,1111122 
SCCF RECON,ioos:station:SCCF:16:1,2010-10-08T23:00:00Z,26.4345,-81.9647,2.554,6.77,1111122 
SCCF RECON,ioos:station:SCCF:16:1,2010-10-09T00:00:00Z,26.4345,-81.9647,2.535,6.61,1111122 
SCCF RECON,ioos:station:SCCF:16:1,2010-10-09T01:00:00Z,26.4345,-81.9647,2.658,6.61,1111122 
SCCF RECON,ioos:station:SCCF:16:1,2010-10-09T02:00:00Z,26.4345,-81.9647,2.864,6.64,1111122 
SCCF RECON,ioos:station:SCCF:16:1,2010-10-09T03:00:00Z,26.4345,-81.9647,3.069,6.93,1111122 
SCCF RECON,ioos:station:SCCF:16:1,2010-10-09T04:00:00Z,26.4345,-81.9647,3.153,6.86,1111122 
SCCF RECON,ioos:station:SCCF:16:1,2010-10-09T05:00:00Z,26.4345,-81.9647,3.178,6.77,1111122 
SCCF RECON,ioos:station:SCCF:16:1,2010-10-09T06:00:00Z,26.4345,-81.9647,3.16,6.59,1111122 
SCCF RECON,ioos:station:SCCF:16:1,2010-10-09T07:00:00Z,26.4345,-81.9647,3.009,6.48,1111122 
SCCF RECON,ioos:station:SCCF:16:1,2010-10-09T08:00:00Z,26.4345,-81.9647,2.771,6.4,1111122 
SCCF RECON,ioos:station:SCCF:16:1,2010-10-09T09:00:00Z,26.4345,-81.9647,2.545,6.45,1111122 
SCCF RECON,ioos:station:SCCF:16:1,2010-10-09T10:00:00Z,26.4345,-81.9647,2.349,6.32,1111122 
SCCF RECON,ioos:station:SCCF:16:1,2010-10-09T11:00:00Z,26.4345,-81.9647,2.152,6.12,1111122 
SCCF RECON,ioos:station:SCCF:16:1,2010-10-09T12:00:00Z,26.4345,-81.9647,2.061,6.1,1111122 
SCCF RECON,ioos:station:SCCF:16:1,2010-10-09T13:00:00Z,26.4345,-81.9647,2.159,5.98,1111122 
SCCF RECON,ioos:station:SCCF:16:1,2010-10-09T14:00:00Z,26.4345,-81.9647,2.423,5.99,1111122 
SCCF RECON,ioos:station:SCCF:16:1,2010-10-09T15:00:00Z,26.4345,-81.9647,2.703,6.24,1111122 
SCCF RECON,ioos:station:SCCF:16:1,2010-10-09T16:00:00Z,26.4345,-81.9647,2.861,6.43,1111122 
SCCF RECON,ioos:station:SCCF:16:1,2010-10-09T17:00:00Z,26.4345,-81.9647,2.948,6.45,1111122 
SCCF RECON,ioos:station:SCCF:16:1,2010-10-09T18:00:00Z,26.4345,-81.9647,3.042,6.58,1111122 
SCCF RECON,ioos:station:SCCF:16:1,2010-10-09T19:00:00Z,26.4345,-81.9647,3.054,6.67,1111122 
SCCF RECON,ioos:station:SCCF:16:1,2010-10-09T20:00:00Z,26.4345,-81.9647,2.967,6.73,1111122 
SCCF RECON,ioos:station:SCCF:16:1,2010-10-09T21:00:00Z,26.4345,-81.9647,2.849,6.56,1111122 
SCCF RECON,ioos:station:SCCF:16:1,2010-10-09T22:00:00Z,26.4345,-81.9647,2.754,6.63,1111122 
SCCF RECON,ioos:station:SCCF:16:1,2010-10-09T23:00:00Z,26.4345,-81.9647,2.7,6.57,1111122 
SCCF RECON,ioos:station:SCCF:16:1,2010-10-10T00:00:00Z,26.4345,-81.9647,2.642,6.61,1111122 
SCCF RECON,ioos:station:SCCF:16:1,2010-10-10T01:00:00Z,26.4345,-81.9647,2.688,6.46,1111122 
SCCF RECON,ioos:station:SCCF:16:1,2010-10-10T02:00:00Z,26.4345,-81.9647,2.843,6.56,1111122 
SCCF RECON,ioos:station:SCCF:16:1,2010-10-10T03:00:00Z,26.4345,-81.9647,3.05,6.58,1111122 
SCCF RECON,ioos:station:SCCF:16:1,2010-10-10T04:00:00Z,26.4345,-81.9647,3.187,6.81,1111122 
SCCF RECON,ioos:station:SCCF:16:1,2010-10-10T05:00:00Z,26.4345,-81.9647,3.212,6.65,1111122 
SCCF RECON,ioos:station:SCCF:16:1,2010-10-10T06:00:00Z,26.4345,-81.9647,3.234,6.58,1111122 
SCCF RECON,ioos:station:SCCF:16:1,2010-10-10T07:00:00Z,26.4345,-81.9647,3.167,6.42,1111122 
SCCF RECON,ioos:station:SCCF:16:1,2010-10-10T08:00:00Z,26.4345,-81.9647,2.984,6.29,1111122 
SCCF RECON,ioos:station:SCCF:16:1,2010-10-10T09:00:00Z,26.4345,-81.9647,2.756,6.29,1111122 
SCCF RECON,ioos:station:SCCF:16:1,2010-10-10T10:00:00Z,26.4345,-81.9647,2.548,6.23,1111122 
SCCF RECON,ioos:station:SCCF:16:1,2010-10-10T11:00:00Z,26.4345,-81.9647,2.33,6.12,1111122 
SCCF RECON,ioos:station:SCCF:16:1,2010-10-10T12:00:00Z,26.4345,-81.9647,2.129,5.96,1111122 
SCCF RECON,ioos:station:SCCF:16:1,2010-10-10T13:00:00Z,26.4345,-81.9647,2.048,5.83,1111122 
SCCF RECON,ioos:station:SCCF:16:1,2010-10-10T14:00:00Z,26.4345,-81.9647,2.179,5.7,1111122 
SCCF RECON,ioos:station:SCCF:16:1,2010-10-10T15:00:00Z,26.4345,-81.9647,2.429,5.91,1111122 
SCCF RECON,ioos:station:SCCF:16:1,2010-10-10T16:00:00Z,26.4345,-81.9647,2.644,6.12,1111122 
SCCF RECON,ioos:station:SCCF:16:1,2010-10-10T17:00:00Z,26.4345,-81.9647,2.764,6.4,1111122 
SCCF RECON,ioos:station:SCCF:16:1,2010-10-10T18:00:00Z,26.4345,-81.9647,2.835,6.46,1111122 
SCCF RECON,ioos:station:SCCF:16:1,2010-10-10T19:00:00Z,26.4345,-81.9647,2.871,6.48,1111122 
SCCF RECON,ioos:station:SCCF:16:1,2010-10-10T20:00:00Z,26.4345,-81.9647,2.87,6.5,1111122 
SCCF RECON,ioos:station:SCCF:16:1,2010-10-10T21:00:00Z,26.4345,-81.9647,2.793,6.51,1111122 
SCCF RECON,ioos:station:SCCF:16:1,2010-10-10T22:00:00Z,26.4345,-81.9647,2.696,6.42,1111122 
SCCF RECON,ioos:station:SCCF:16:1,2010-10-10T23:00:00Z,26.4345,-81.9647,2.659,6.47,1111122 
SCCF RECON,ioos:station:SCCF:16:1,2010-10-11T00:00:00Z,26.4345,-81.9647,2.625,6.46,1111122 
SCCF RECON,ioos:station:SCCF:16:1,2010-10-11T01:00:00Z,26.4345,-81.9647,2.602,6.22,1111122 
SCCF RECON,ioos:station:SCCF:16:1,2010-10-11T02:00:00Z,26.4345,-81.9647,2.664,6.28,1111122 
SCCF RECON,ioos:station:SCCF:16:1,2010-10-11T03:00:00Z,26.4345,-81.9647,2.813,6.28,1111122 
SCCF RECON,ioos:station:SCCF:16:1,2010-10-11T04:00:00Z,26.4345,-81.9647,2.97,6.45,1111122 
SCCF RECON,ioos:station:SCCF:16:1,2010-10-11T05:00:00Z,26.4345,-81.9647,3.058,6.4,1111122 
SCCF RECON,ioos:station:SCCF:16:1,2010-10-11T06:00:00Z,26.4345,-81.9647,3.091,6.36,1111122 
SCCF RECON,ioos:station:SCCF:16:1,2010-10-11T07:00:00Z,26.4345,-81.9647,3.107,6.26,1111122 
SCCF RECON,ioos:station:SCCF:16:1,2010-10-11T08:00:00Z,26.4345,-81.9647,3.022,6.12,1111122 
SCCF RECON,ioos:station:SCCF:16:1,2010-10-11T09:00:00Z,26.4345,-81.9647,2.865,6.06,1111122 
SCCF RECON,ioos:station:SCCF:16:1,2010-10-11T10:00:00Z,26.4345,-81.9647,2.659,6.05,1111122 
SCCF RECON,ioos:station:SCCF:16:1,2010-10-11T11:00:00Z,26.4345,-81.9647,2.461,5.99,1111122 
SCCF RECON,ioos:station:SCCF:16:1,2010-10-11T12:00:00Z,26.4345,-81.9647,2.295,5.86,1111122 
SCCF RECON,ioos:station:SCCF:16:1,2010-10-11T13:00:00Z,26.4345,-81.9647,2.135,5.65,1111122 
SCCF RECON,ioos:station:SCCF:16:1,2010-10-11T14:00:00Z,26.4345,-81.9647,2.113,5.6,1111122 
SCCF RECON,ioos:station:SCCF:16:1,2010-10-11T15:00:00Z,26.4345,-81.9647,2.262,5.53,1111122 
SCCF RECON,ioos:station:SCCF:16:1,2010-10-11T16:00:00Z,26.4345,-81.9647,2.493,5.66,1111122 
SCCF RECON,ioos:station:SCCF:16:1,2010-10-11T17:00:00Z,26.4345,-81.9647,2.643,6.01,1111122 
SCCF RECON,ioos:station:SCCF:16:1,2010-10-11T18:00:00Z,26.4345,-81.9647,2.709,6.16,1111122 
SCCF RECON,ioos:station:SCCF:16:1,2010-10-11T19:00:00Z,26.4345,-81.9647,2.754,6.28,1111122 